Weather History for Jaffrey, NH

Change the Weather History Date:

Thursday, December 27, 2012

  Actual Average Record
Temperature  
Mean Temperature 27 °F -  
Max Temperature 30 °F 30 °F 52 °F (2011)
Min Temperature 24 °F 15 °F 7 °F (2002)
Degree Days  
Heating Degree Days 38    
Moisture  
Dew Point 27 °F    
Average Humidity 93    
Maximum Humidity 100    
Minimum Humidity 80    
Precipitation  
Precipitation 0.72 in - - ()
Sea Level Pressure  
Sea Level Pressure 29.54 in    
Wind  
Wind Speed 8 mph (North)    
Max Wind Speed 13 mph    
Max Gust Speed 25 mph    
Visibility 2 miles    
Events Fog , Snow    
Averages and records for this station are not official NWS values.
T = Trace of Precipitation, MM = Missing Value Source: NWS Daily Summary

Daily Weather History Graph

Daily Weather History Graph

Search for Another Location

Airport:

Trip Planner

Search our weather history database for the weather conditions in past years. The results will help you decide how hot, cold, wet, or windy it might be!

Date:

Astronomy

Dec. 27, 2012 Rise Set
Actual Time 7:17 AM EST 4:20 PM EST
Civil Twilight 6:45 AM EST 4:53 PM EST
Nautical Twilight 6:09 AM EST 5:28 PM EST
Astronomical Twilight 5:35 AM EST 6:03 PM EST
Moon 4:02 PM EST (12/27) 6:25 AM EST (12/27)
Length of Visible Light 10h 07m
Length of Day
9h 03m
Full, 100% of the Moon is Illuminated
Dec 27
Full
Dec 28
Full
Jan 4
Last Quarter
Jan 11
New
Jan 18
First Quarter

Hourly Weather History & Observations

Time (EST) Temp. Windchill Dew Point Humidity Pressure Visibility Wind Dir Wind Speed Gust Speed Precip Events Conditions
12:49 AM 28.4 °F 20.4 °F 26.6 °F 93% 29.81 in 1.0 mi NE 8.1 mph - 0.06 in Snow Light Snow
12:52 AM 28.0 °F 19.3 °F 26.1 °F 92% 29.86 in 1.0 mi NE 9.2 mph - 0.06 in Snow Light Snow
12:59 AM 28.4 °F 23.3 °F 26.6 °F 93% 29.80 in 0.8 mi Variable 4.6 mph - 0.01 in Snow Light Snow
1:52 AM 28.0 °F 21.7 °F 27.0 °F 96% 29.82 in 0.5 mi Variable 5.8 mph - 0.05 in Fog , Snow Snow
2:06 AM 28.4 °F 20.4 °F 26.6 °F 93% 29.74 in 0.5 mi NNE 8.1 mph - 0.02 in Fog , Snow Snow
2:16 AM 28.4 °F 23.3 °F 26.6 °F 93% 29.72 in 0.5 mi Variable 4.6 mph 19.6 mph 0.03 in Fog , Snow Snow
2:52 AM 28.0 °F 20.8 °F 28.0 °F 100% 29.75 in 0.5 mi Variable 6.9 mph 20.7 mph 0.05 in Fog , Snow Snow
3:24 AM 28.4 °F 20.4 °F 28.4 °F 100% 29.65 in 1.0 mi NNE 8.1 mph - 0.03 in Snow Light Snow
3:36 AM 28.4 °F 19.7 °F 26.6 °F 93% 29.64 in 1.0 mi NNE 9.2 mph - 0.03 in Snow Light Snow
3:43 AM 26.6 °F 19.1 °F 26.6 °F 100% 29.63 in 1.2 mi Variable 6.9 mph - 0.03 in Snow Light Snow
3:52 AM 27.0 °F 19.5 °F 26.1 °F 96% 29.69 in 1.5 mi Variable 6.9 mph - 0.04 in Snow Light Snow
4:19 AM 26.6 °F 16.8 °F 24.8 °F 93% 29.61 in 1.0 mi NNE 10.4 mph 19.6 mph 0.01 in Snow Light Snow
4:31 AM 26.6 °F 19.1 °F 24.8 °F 93% 29.59 in 0.8 mi Variable 6.9 mph 18.4 mph 0.02 in Snow Light Snow
4:52 AM 26.1 °F 18.4 °F 25.0 °F 96% 29.63 in 0.5 mi Variable 6.9 mph 20.7 mph 0.04 in Fog , Snow Light Snow
5:02 AM 26.6 °F 16.8 °F 24.8 °F 93% 29.57 in 0.5 mi NE 10.4 mph 20.7 mph 0.01 in Fog , Snow Light Snow
5:14 AM 26.6 °F 16.8 °F 24.8 °F 93% 29.57 in 0.5 mi NNE 10.4 mph 18.4 mph 0.03 in Fog , Snow Light Snow
5:24 AM 26.6 °F 17.5 °F 24.8 °F 93% 29.56 in 0.5 mi NNE 9.2 mph 17.3 mph 0.04 in Fog , Snow Snow
5:52 AM 25.0 °F 14.8 °F 24.1 °F 96% 29.60 in 0.8 mi NNE 10.4 mph 17.3 mph 0.06 in Snow Light Snow
6:52 AM 25.0 °F 16.3 °F 24.1 °F 96% 29.57 in 0.5 mi North 8.1 mph 18.4 mph 0.07 in Fog , Snow Snow
7:08 AM 24.8 °F 16.9 °F 24.8 °F 100% 29.51 in 0.5 mi Variable 6.9 mph 18.4 mph 0.02 in Fog , Snow Snow
7:43 AM 26.6 °F 18.2 °F 24.8 °F 93% 29.49 in 0.5 mi NNE 8.1 mph 17.3 mph 0.06 in Fog , Snow Snow
7:52 AM 26.1 °F 17.6 °F 25.0 °F 96% 29.54 in 0.5 mi NNE 8.1 mph 17.3 mph 0.07 in Fog , Snow Snow
8:48 AM 26.6 °F 15.7 °F 26.6 °F 100% 29.46 in 0.5 mi NNE 12.7 mph 20.7 mph 0.04 in Fog , Snow Light Snow
8:52 AM 27.0 °F 18.7 °F 26.1 °F 96% 29.51 in 0.8 mi NNE 8.1 mph 24.2 mph 0.04 in Snow Light Snow
9:06 AM 28.4 °F 19.7 °F 26.6 °F 93% 29.45 in 0.8 mi NNE 9.2 mph 21.9 mph 0.00 in Snow Light Snow
9:52 AM 28.0 °F 18.6 °F 27.0 °F 96% 29.49 in 0.5 mi NNE 10.4 mph 25.3 mph 0.01 in Fog , Snow Light Snow
10:04 AM 28.4 °F 21.2 °F 26.6 °F 93% 29.43 in 0.5 mi Variable 6.9 mph 23.0 mph 0.01 in Fog , Snow Light Snow
10:40 AM 28.4 °F 18.5 °F 28.4 °F 100% 29.41 in 0.8 mi North 11.5 mph 23.0 mph 0.02 in Snow Light Snow
10:52 AM 30.0 °F 21.7 °F 28.0 °F 92% 29.46 in 0.8 mi NNE 9.2 mph 20.7 mph 0.02 in Snow Light Snow
11:44 AM 30.2 °F 21.9 °F 28.4 °F 93% 29.37 in 0.5 mi NNE 9.2 mph - 0.02 in Fog , Snow Snow
11:52 AM 30.0 °F 22.4 °F 28.9 °F 96% 29.41 in 0.5 mi NNE 8.1 mph 21.9 mph 0.02 in Fog , Snow Light Snow
12:52 PM 30.0 °F 21.7 °F 28.9 °F 96% 29.39 in 0.5 mi NNE 9.2 mph 18.4 mph 0.02 in Fog , Snow Light Snow
1:48 PM 30.2 °F 20.8 °F 28.4 °F 93% 29.34 in 1.0 mi North 11.5 mph 21.9 mph 0.02 in Snow Light Snow
1:52 PM 30.9 °F 23.5 °F 28.9 °F 92% 29.39 in 1.2 mi North 8.1 mph 19.6 mph 0.02 in Snow Light Snow
2:06 PM 30.2 °F 21.3 °F 28.4 °F 93% 29.34 in 1.0 mi North 10.4 mph 18.4 mph 0.01 in Snow Light Snow
2:39 PM 30.2 °F 22.6 °F 28.4 °F 93% 29.36 in 0.8 mi North 8.1 mph 18.4 mph 0.01 in Snow Light Snow
2:52 PM 30.0 °F 21.7 °F 28.0 °F 92% 29.42 in 0.5 mi North 9.2 mph - 0.01 in Fog , Snow Snow
3:52 PM 30.0 °F 22.4 °F 28.0 °F 92% 29.45 in 0.5 mi North 8.1 mph 20.7 mph 0.04 in Fog , Snow Snow
4:21 PM 30.2 °F 24.3 °F 28.4 °F 93% 29.42 in 1.2 mi Variable 5.8 mph - 0.04 in Snow Light Snow
4:28 PM 30.2 °F 24.3 °F 28.4 °F 93% 29.42 in 1.2 mi Variable 5.8 mph - 0.05 in Snow Light Snow
4:52 PM 30.0 °F 23.2 °F 28.0 °F 92% 29.49 in 1.2 mi Variable 6.9 mph - 0.06 in Snow Light Snow
5:03 PM 30.2 °F 21.3 °F 28.4 °F 93% 29.44 in 1.5 mi North 10.4 mph - 0.00 in Snow Light Snow
5:11 PM 30.2 °F 22.6 °F 28.4 °F 93% 29.44 in 1.2 mi North 8.1 mph 17.3 mph 0.01 in Snow Light Snow
5:26 PM 30.2 °F 22.6 °F 28.4 °F 93% 29.45 in 1.5 mi North 8.1 mph 18.4 mph 0.01 in Snow Light Snow
5:52 PM 30.0 °F 22.4 °F 28.0 °F 92% 29.51 in 1.5 mi North 8.1 mph - 0.02 in Snow Light Snow
6:07 PM 30.2 °F 24.3 °F 28.4 °F 93% 29.46 in 1.2 mi Variable 5.8 mph - 0.00 in Snow Light Snow
6:12 PM 30.2 °F 25.4 °F 28.4 °F 93% 29.47 in 1.0 mi NNW 4.6 mph - 0.00 in Snow Light Snow
6:28 PM 30.2 °F 25.4 °F 28.4 °F 93% 29.48 in 1.2 mi Variable 4.6 mph - 0.01 in Snow Light Snow
6:36 PM 28.4 °F 23.3 °F 28.4 °F 100% 29.48 in 1.8 mi Variable 4.6 mph - 0.01 in Snow Light Snow
6:52 PM 28.9 °F 21.1 °F 27.0 °F 92% 29.55 in 1.8 mi NNW 8.1 mph - 0.01 in Snow Light Snow
7:14 PM 28.4 °F 20.4 °F 26.6 °F 93% 29.51 in 2.5 mi North 8.1 mph - 0.00 in Snow Light Snow
7:26 PM 28.4 °F 21.2 °F 26.6 °F 93% 29.51 in 3.0 mi North 6.9 mph - 0.00 in Snow Light Snow
7:52 PM 28.9 °F 23.9 °F 26.1 °F 89% 29.58 in 4.0 mi Variable 4.6 mph - 0.00 in Snow Light Snow
8:16 PM 28.4 °F 22.2 °F 24.8 °F 86% 29.54 in 5.0 mi Variable 5.8 mph - 0.00 in Snow Light Snow
8:52 PM 28.0 °F 22.8 °F 25.0 °F 88% 29.60 in 10.0 mi Variable 4.6 mph - 0.00 in   Overcast
9:31 PM 28.4 °F 24.6 °F 24.8 °F 86% 29.57 in 10.0 mi Variable 3.5 mph - N/A   Overcast
9:52 PM 27.0 °F 18.7 °F 23.0 °F 85% 29.64 in 10.0 mi NNW 8.1 mph 18.4 mph 0.01 in   Overcast
10:09 PM 26.6 °F 20.0 °F 21.2 °F 80% 29.60 in 10.0 mi WNW 5.8 mph - N/A   Overcast
10:52 PM 26.1 °F 17.6 °F 21.9 °F 84% 29.66 in 10.0 mi NW 8.1 mph 17.3 mph N/A   Overcast
11:52 PM 25.0 °F 19.3 °F 21.0 °F 85% 29.68 in 10.0 mi Variable 4.6 mph - N/A   Overcast